Wind_Speed
23 22 21 20 20 20 20 20 19 18 20 24 28 26 26 27 28 31 33 36 39 43 47 51 54 58 62 65 68 71 74 77 80 83 86 89 92 95 98 100 100 98 95 91
23 22 22 22 22 23 23 22 22 21 21 27 27 25 26 27 30 33 36 41 45 49 53 57 60 64 67 70 72 75 78 81 84 87 91 93 96 97 97 96 94 91 87 83
24 22 23 23 24 23 22 22 23 21 22 24 25 26 28 31 34 37 41 46 50 55 59 62 66 68 71 73 75 78 82 85 89 91 93 94 94 92 90 86 82 78 75 73
21 21 22 23 23 23 23 23 23 22 22 24 26 28 32 35 39 43 47 52 56 60 63 66 68 71 73 76 79 83 86 89 92 92 91 89 85 81 77 73 71 69 69 69
19 20 21 22 21 22 21 22 22 23 24 26 29 33 36 40 45 50 54 57 60 63 65 67 70 73 76 79 83 86 88 89 89 86 82 78 74 71 69 67 67 67 69 71
18 19 20 19 19 19 20 22 23 25 27 31 35 39 42 47 51 54 57 60 62 65 67 70 73 75 79 82 85 86 86 84 81 77 74 71 69 68 68 69 70 72 75 78
17 18 19 19 19 20 22 24 28 31 34 38 42 46 50 53 56 58 61 63 65 68 70 73 75 78 82 84 85 84 81 77 73 71 69 69 69 71 73 75 77 80 82 85
20 21 21 21 23 25 27 30 33 37 40 44 48 51 54 57 59 61 64 66 69 71 73 75 78 81 83 83 81 78 74 71 70 69 70 72 74 76 79 83 86 88 90 91
23 25 25 26 28 30 32 36 39 43 46 50 53 55 58 60 62 64 67 69 71 73 75 77 80 82 81 79 75 71 69 68 69 70 73 76 80 83 86 89 93 95 95 95
26 29 31 32 34 36 39 42 44 47 50 52 55 57 59 61 64 67 70 71 73 75 78 80 81 81 78 74 70 68 68 68 71 74 77 81 85 89 92 94 96 95 93 88
30 33 36 38 40 42 44 46 48 50 52 54 56 58 60 63 67 69 71 73 75 77 80 80 79 76 73 69 67 67 68 71 75 79 83 87 89 91 92 90 88 84 79 73
33 36 38 40 44 46 48 50 52 54 55 57 59 61 63 66 69 70 72 74 76 78 79 78 74 71 68 66 66 69 72 76 80 84 87 89 88 85 79 74 69 65 62 59
37 40 42 44 47 50 52 55 57 58 59 60 61 63 66 68 70 72 73 76 77 77 76 73 69 66 64 65 68 72 77 81 84 86 85 83 78 73 65 57 53 53 52 50
42 45 47 50 52 55 57 59 61 62 61 62 63 65 67 70 72 74 75 77 76 74 71 68 64 62 63 66 70 75 80 83 84 81 76 71 67 63 59 54 49 46 46 44
48 51 53 56 58 60 61 61 61 60 60 62 64 66 69 71 73 75 76 76 73 70 67 64 61 61 65 69 73 78 81 82 78 73 68 65 63 60 56 53 50 47 43 40
53 56 58 59 60 60 59 58 57 58 60 63 65 67 69 72 74 75 74 72 68 64 61 59 59 62 67 71 75 79 80 77 73 68 66 64 61 57 53 50 48 46 43 39
56 58 59 58 57 55 54 54 56 58 60 63 65 67 70 72 73 72 70 66 62 59 58 58 60 64 69 74 78 80 78 73 69 66 63 60 57 54 51 49 48 45 42 39
56 55 53 52 51 51 53 55 56 58 60 62 65 68 70 71 70 68 64 60 57 56 58 60 63 67 71 76 79 79 75 69 65 62 59 57 54 53 51 48 47 44 40 37
49 49 50 50 51 52 53 54 56 58 61 64 67 69 70 69 66 62 58 56 56 56 58 62 65 69 73 77 78 76 70 64 60 58 56 54 52 50 48 46 44 41 38 34
48 49 50 50 51 51 52 55 58 61 64 67 68 69 67 64 60 56 54 54 57 58 60 63 67 71 74 77 77 72 66 61 58 57 55 53 51 48 46 44 41 38 35 31
49 49 50 51 51 52 55 58 61 65 67 68 67 65 61 58 55 53 53 54 57 60 62 66 69 73 76 77 74 69 63 59 57 56 55 52 50 47 44 42 39 36 32 27
50 51 52 53 54 56 59 62 65 67 67 65 63 59 56 53 52 52 54 57 58 61 64 68 72 75 77 76 71 65 60 57 56 55 54 52 49 46 43 41 37 33 28 24
52 53 54 55 57 59 62 65 67 66 63 60 57 54 52 51 52 53 55 58 61 64 66 70 74 76 77 73 67 61 57 55 55 54 52 49 47 44 42 39 34 29 24 20
53 54 55 57 60 62 65 66 65 62 58 54 52 51 51 51 53 55 57 60 63 66 69 72 76 77 75 69 63 57 55 54 53 52 50 47 45 42 40 36 29 24 20 16
54 55 57 60 63 65 66 64 61 56 52 50 50 51 52 53 54 56 59 62 65 68 72 75 77 76 71 64 58 55 53 53 52 50 47 44 41 38 35 30 24 19 15 12
56 58 60 63 66 66 63 59 54 50 48 48 49 51 53 55 57 59 62 65 68 71 74 76 76 72 65 59 54 53 52 51 49 47 43 40 36 33 30 25 19 15 12 10
59 62 64 65 64 60 56 51 48 48 48 49 50 52 54 56 59 62 65 68 71 74 76 75 72 66 59 54 51 51 51 49 46 43 39 34 31 28 24 19 14 12 10 9
Wind_Direction
198 202 210 217 224 231 236 241 243 242 250 260 267 276 283 285 286 289 292 296 298 300 301 301 302 303 302 302 302 301 301 302 302 302 302 301 300 300 299 298 297 296 296 295
205 209 216 223 230 235 238 241 244 246 251 260 273 281 283 286 290 294 297 299 301 302 302 302 302 302 301 301 301 302 302 303 302 302 302 301 300 300 299 298 297 297 297 297
213 218 222 225 231 237 243 249 253 254 255 265 275 281 287 292 295 297 299 301 302 302 302 302 302 301 302 302 302 303 303 303 303 303 303 302 300 299 299 299 299 299 299 299
213 217 224 228 234 241 248 253 258 259 263 270 279 286 291 296 298 299 301 302 302 302 301 302 302 302 303 303 304 305 305 305 304 304 303 301 300 300 300 300 300 301 301 301
226 229 235 240 240 245 251 257 263 269 276 282 286 290 295 298 300 302 302 302 302 302 302 302 303 303 304 305 306 306 306 305 305 303 302 301 301 301 301 301 301 301 302 302
234 236 240 246 248 250 255 264 273 279 284 288 291 295 299 300 302 302 302 303 303 303 303 304 305 306 307 307 307 307 307 305 304 303 302 301 301 300 300 300 301 301 302 302
240 242 245 251 255 259 266 273 278 284 289 293 296 298 300 302 303 303 304 304 305 305 306 307 307 308 308 309 309 308 307 305 303 302 301 301 301 301 301 301 302 302 302 302
246 247 251 256 260 266 273 278 284 288 292 295 298 300 302 304 305 305 306 306 307 308 308 308 308 309 310 309 309 308 306 305 304 303 303 303 303 304 304 304 303 303 303 302
253 257 260 263 268 274 279 285 289 293 297 300 302 304 306 307 307 307 308 308 308 308 309 309 310 310 310 310 309 307 306 306 305 305 306 306 306 306 305 305 304 303 303 302
259 265 269 273 277 282 287 292 296 300 303 305 306 307 307 308 308 308 308 308 308 309 310 311 311 311 310 310 309 308 308 308 308 308 308 307 307 307 306 305 304 304 303 303
265 270 275 281 285 289 293 297 300 303 305 306 306 306 306 307 307 307 307 308 308 310 311 311 311 311 310 310 310 310 310 310 310 310 309 308 307 307 307 307 307 308 308 309
271 275 280 285 290 294 297 300 302 303 303 303 304 304 305 305 306 306 307 308 310 311 311 311 311 310 310 311 311 312 312 312 312 311 310 309 308 308 310 311 312 313 314 314
276 279 283 288 291 294 297 298 299 300 301 302 302 303 304 305 306 307 308 310 311 311 311 311 311 310 310 312 312 313 314 314 314 313 312 312 312 313 314 316 316 316 316 316
279 283 287 290 292 294 295 297 298 299 300 301 302 303 304 306 307 308 310 311 311 311 310 310 310 310 311 312 314 316 316 316 316 315 314 314 315 316 316 317 318 318 317 317
281 284 287 290 292 294 296 298 299 299 300 301 302 304 305 306 308 309 310 310 310 309 309 309 309 310 311 314 317 318 319 318 317 316 315 315 316 316 316 316 318 319 320 319
283 286 289 292 293 295 297 297 298 298 300 301 303 304 306 307 309 310 309 309 308 307 307 307 309 311 313 316 319 321 320 319 317 316 315 315 316 316 315 316 318 319 320 319
286 289 291 293 294 295 296 296 297 299 300 301 303 305 307 309 309 309 308 308 307 306 306 308 310 312 315 319 321 322 321 319 317 316 315 315 316 316 315 316 317 318 318 318
288 290 292 293 294 294 295 296 298 299 300 303 305 308 309 309 309 308 307 306 305 306 307 309 311 314 317 320 322 322 321 319 317 316 315 315 315 315 315 315 316 317 317 315
289 291 292 293 293 294 295 297 298 300 303 306 308 309 310 309 308 306 305 304 303 305 307 309 312 315 318 320 322 322 320 318 317 317 316 316 315 315 314 314 315 315 316 314
290 291 291 292 292 293 295 297 300 303 306 308 309 309 308 307 305 304 303 303 304 306 308 310 313 316 319 321 322 321 319 316 316 316 316 316 315 315 314 313 314 314 315 313
291 291 291 292 293 295 297 300 303 306 308 309 308 307 306 304 303 303 303 304 305 307 310 312 315 317 319 321 321 319 316 315 315 315 316 316 315 315 313 313 313 313 314 312
292 292 293 294 295 298 300 303 305 307 308 307 305 304 303 302 302 303 305 306 307 309 311 314 315 317 319 320 319 317 315 315 315 315 315 315 314 313 312 311 310 310 311 310
292 293 294 295 298 300 302 304 306 306 305 304 302 302 302 303 304 305 306 307 309 311 313 314 316 317 319 319 318 316 315 315 315 315 314 314 313 312 311 309 306 304 305 305
293 294 295 297 299 302 304 305 305 304 302 301 301 302 303 305 306 307 308 310 311 312 314 315 316 317 318 317 316 315 315 315 315 315 314 313 312 311 310 307 301 297 297 296
293 294 296 299 301 303 303 303 302 300 300 300 302 304 305 307 308 309 310 311 312 313 314 315 316 317 317 316 315 314 314 315 315 314 313 313 312 311 309 304 296 288 284 280
294 296 298 300 301 302 301 300 298 298 300 302 304 306 307 308 309 310 311 312 312 313 314 315 315 316 315 314 313 313 314 315 315 314 313 312 311 309 307 300 288 276 268 264
296 298 299 300 300 299 297 296 297 299 302 304 305 306 307 308 309 310 311 312 312 313 314 315 315 314 313 313 313 313 314 315 315 314 313 311 309 307 303 294 279 261 249 241
Height
5726 5730 5733 5735 5738 5740 5742 5743 5743 5744 5743 5741 5737 5738 5739 5737 5734 5732 5729 5727 5723 5719 5714 5708 5703 5696 5690 5683 5675 5668 5660 5652 5644 5636 5627 5618 5608 5597 5586 5575 5563 5552 5543 5534
5723 5726 5729 5731 5733 5734 5735 5735 5736 5737 5737 5734 5733 5732 5731 5729 5726 5723 5720 5715 5711 5706 5700 5695 5688 5682 5674 5667 5659 5651 5643 5634 5626 5616 5606 5595 5584 5573 5561 5550 5539 5528 5519 5511
5720 5722 5723 5726 5726 5727 5728 5729 5730 5731 5731 5728 5727 5725 5723 5720 5717 5713 5708 5704 5698 5692 5686 5680 5673 5666 5658 5651 5643 5634 5625 5615 5605 5595 5583 5571 5559 5548 5537 5527 5518 5509 5500 5492
5714 5717 5718 5722 5721 5722 5722 5722 5723 5724 5723 5723 5721 5718 5715 5711 5707 5702 5697 5691 5685 5679 5673 5666 5658 5650 5642 5634 5625 5616 5605 5593 5582 5571 5560 5547 5536 5525 5516 5508 5499 5491 5483 5474
5709 5710 5712 5714 5715 5716 5716 5716 5716 5716 5716 5714 5712 5709 5706 5701 5696 5691 5685 5679 5673 5666 5659 5651 5643 5635 5626 5617 5607 5596 5584 5572 5559 5548 5537 5526 5516 5507 5498 5491 5483 5474 5465 5456
5703 5704 5706 5708 5709 5709 5711 5710 5709 5708 5706 5704 5701 5698 5695 5689 5684 5679 5673 5666 5659 5651 5643 5635 5626 5617 5608 5598 5587 5575 5563 5550 5537 5526 5516 5507 5499 5490 5481 5473 5464 5455 5447 5436
5697 5698 5699 5701 5702 5703 5705 5704 5701 5699 5696 5693 5689 5686 5681 5676 5671 5665 5658 5651 5643 5634 5625 5617 5609 5599 5589 5579 5567 5554 5541 5529 5519 5508 5498 5490 5481 5472 5462 5454 5445 5436 5427 5417
5691 5693 5696 5695 5695 5696 5695 5693 5691 5688 5685 5682 5677 5673 5668 5662 5655 5649 5641 5633 5625 5616 5608 5599 5591 5581 5569 5558 5546 5534 5523 5512 5502 5492 5482 5472 5463 5453 5443 5432 5422 5411 5401 5392
5687 5688 5688 5687 5687 5686 5685 5683 5679 5676 5672 5667 5662 5657 5651 5645 5638 5631 5623 5616 5607 5599 5590 5580 5570 5559 5548 5537 5526 5515 5505 5495 5486 5477 5466 5455 5444 5433 5423 5410 5397 5385 5374 5363
5679 5678 5677 5677 5676 5675 5673 5670 5666 5662 5657 5652 5646 5640 5634 5628 5621 5614 5607 5599 5590 5581 5571 5561 5549 5537 5527 5517 5507 5498 5489 5479 5470 5460 5450 5439 5426 5412 5399 5385 5371 5359 5347 5336
5671 5669 5667 5665 5663 5662 5659 5656 5651 5647 5642 5637 5632 5626 5620 5614 5607 5599 5591 5583 5573 5563 5553 5542 5530 5518 5508 5499 5491 5482 5474 5464 5454 5443 5430 5419 5406 5392 5377 5363 5345 5331 5321 5311
5661 5659 5657 5655 5651 5648 5645 5641 5637 5633 5628 5624 5618 5613 5606 5599 5592 5584 5575 5566 5556 5545 5534 5524 5512 5501 5492 5484 5475 5467 5458 5448 5436 5423 5410 5395 5382 5373 5360 5343 5330 5316 5305 5296
5649 5647 5645 5643 5640 5636 5632 5628 5624 5620 5615 5610 5604 5598 5591 5583 5575 5567 5558 5548 5538 5527 5516 5506 5497 5487 5478 5470 5461 5451 5440 5428 5416 5403 5388 5374 5360 5349 5343 5337 5323 5309 5298 5289
5635 5633 5632 5629 5626 5623 5619 5615 5610 5605 5600 5594 5588 5582 5574 5566 5558 5550 5540 5530 5519 5509 5499 5491 5482 5474 5465 5457 5447 5436 5423 5409 5395 5382 5368 5356 5345 5335 5326 5319 5313 5305 5294 5283
5622 5620 5618 5615 5612 5608 5604 5599 5595 5590 5584 5578 5572 5565 5558 5550 5541 5532 5523 5512 5502 5492 5484 5476 5469 5461 5451 5442 5432 5419 5405 5391 5378 5365 5353 5342 5332 5323 5314 5306 5299 5292 5285 5278
5608 5606 5603 5600 5597 5593 5588 5584 5579 5574 5568 5562 5556 5549 5541 5533 5524 5514 5505 5496 5487 5478 5470 5463 5456 5447 5437 5427 5416 5403 5389 5374 5360 5350 5339 5329 5319 5310 5302 5295 5288 5282 5275 5269
5595 5592 5588 5585 5581 5577 5573 5568 5564 5559 5553 5547 5540 5533 5525 5516 5507 5497 5488 5479 5471 5463 5455 5449 5442 5432 5421 5410 5399 5386 5373 5359 5347 5335 5325 5315 5307 5299 5291 5285 5278 5272 5266 5260
5580 5577 5573 5569 5565 5562 5558 5553 5549 5543 5537 5531 5524 5516 5508 5499 5490 5481 5472 5464 5457 5449 5441 5433 5425 5416 5406 5394 5382 5370 5356 5344 5333 5322 5312 5304 5295 5288 5281 5274 5268 5262 5257 5252
5565 5562 5559 5555 5551 5547 5543 5538 5533 5528 5522 5515 5507 5498 5489 5481 5472 5465 5458 5451 5443 5438 5430 5420 5410 5401 5390 5378 5366 5354 5341 5330 5320 5310 5301 5293 5285 5277 5270 5264 5258 5253 5248 5244
5551 5549 5545 5541 5537 5533 5528 5523 5518 5511 5505 5497 5489 5480 5471 5463 5456 5450 5444 5437 5428 5422 5415 5406 5396 5386 5375 5363 5350 5338 5327 5317 5307 5298 5290 5281 5274 5267 5260 5254 5249 5244 5240 5236
5537 5534 5530 5527 5522 5518 5513 5507 5501 5494 5487 5479 5471 5463 5456 5448 5442 5436 5430 5424 5415 5407 5399 5390 5379 5369 5359 5348 5336 5324 5313 5303 5294 5286 5277 5269 5262 5256 5250 5244 5239 5235 5232 5229
5521 5518 5514 5510 5506 5501 5496 5490 5483 5476 5469 5461 5453 5447 5441 5435 5428 5422 5415 5407 5401 5392 5384 5374 5363 5353 5342 5331 5320 5309 5299 5289 5281 5272 5265 5257 5250 5244 5239 5234 5230 5227 5224 5222
5507 5503 5499 5495 5491 5485 5479 5473 5466 5459 5452 5444 5438 5431 5426 5420 5414 5408 5402 5393 5385 5377 5368 5358 5347 5337 5326 5315 5303 5293 5284 5275 5267 5259 5252 5245 5238 5232 5227 5223 5220 5218 5217 5215
5493 5489 5485 5480 5475 5469 5463 5456 5449 5442 5435 5429 5423 5416 5411 5406 5400 5391 5384 5378 5369 5361 5351 5341 5330 5319 5308 5297 5288 5279 5270 5262 5254 5246 5239 5232 5226 5220 5216 5212 5210 5209 5209 5209
5478 5474 5469 5464 5458 5452 5445 5438 5432 5425 5420 5414 5408 5402 5396 5390 5384 5378 5370 5362 5353 5344 5334 5324 5313 5302 5291 5281 5272 5264 5256 5248 5240 5233 5227 5220 5214 5209 5205 5202 5201 5202 5202 5203
5463 5458 5453 5447 5441 5434 5427 5421 5415 5410 5405 5400 5394 5387 5381 5375 5368 5362 5354 5346 5336 5327 5317 5307 5296 5285 5275 5266 5258 5250 5243 5235 5228 5220 5214 5208 5203 5199 5196 5194 5193 5195 5197 5198
5446 5440 5435 5429 5422 5416 5411 5406 5401 5396 5391 5386 5381 5374 5368 5361 5354 5346 5338 5329 5320 5310 5300 5289 5278 5268 5259 5251 5244 5237 5229 5222 5215 5208 5203 5198 5194 5190 5188 5187 5187 5189 5191 5193